CZ-6A DEB

Satellite information

Favourite Embed

Satellite Type and Status

DEBRISIN ORBIT

Key statistics

Satellite CZ-6A DEB at a glance.

Uptime

910

Days in orbit

Revolutions

≈ 14.4

Per day

Orbit

SSO

Sun Synchronous Orbit

Inclination

98.8

Latest

Satellite identification and parameters

Extended collection of information and parameters for CZ-6A DEB.

Object identification

Identified? True

Debris? True

Object name: CZ-6A DEB

International designator: 2022-151AAJ

Object number (NORAD): 55886

Object ID (CCSDS): 55886

Country: PEOPLES REPUBLIC OF CHINA (PRC)

Current information (Y/N): Y

RCS size: SMALL

Orbital parameters

Period: 100.09 minutes

Inclination: 98.7614 deg

SMA: 7140.932 km

Apoapsis: 793.976 km

Periapsis: 731.619 km

RAAN: 156.2234 deg

Eccentricy: 0.0043662

Argument of periapsis: 55.9114 deg

Mean anomaly: 304.6204 deg

Mean motion: 14.38700488 rev/day

Mean motion (dot): 0.00006152 rev/day2

B* drag term: 0.0019966 1/REarth

Two-line elements (TLE)

Creation date: May 8, 2025, 10:26 p.m.

Reference frame: TEME

Reference center: EARTH

Epoch: May 8, 2025, 3:07 p.m. UTC

TLE line 0: 0 CZ-6A DEB

TLE line 1: 1 55886U 22151AAJ 25128.63001171 .00006152 00000-0 19966-2 0 9997

TLE line 2: 2 55886 98.7614 156.2234 0043662 55.9114 304.6204 14.38700488124322

Live tracking on map

Real-time ground track for satellite CZ-6A DEB.

In-orbit conjunctions

A list of the most updated potential collisions computed for object CZ-6A DEB.

Target Orbit TCA Probability of collision Miss distance Type
THOR BURNER 2 R/B SSO 2025-04-24 11:52:20 0.001344211 11.0 (m) ROCKET BODY
DMSP 5D-2 F9 (USA 29) SSO 2025-02-27 16:58:00 0.0002489984 820.0 (m) PAYLOAD
PSLV R/B LEO 2025-02-06 10:09:24 0.0002300679 730.0 (m) ROCKET BODY

Associated space launch

Chinese satellite reported for atmospheric/ocean/environmental/spatial parameter research purposes, details TBD.

CZ-6A DEB was lifted into orbit during the mission ‘Long March 6A | Yunhai 3’, on board a Long March 6A space rocket.

The launch took place on Nov. 11, 2022, 10:52 p.m. from Launch Complex 9A.

For more information about the launch, click the button.

Launch to space Long March 6A | Yunhai 3
Long March 6A | Yunhai 3

Agency: N/A

Status: Launch Successful

Launch date: Nov. 11, 2022, 10:52 p.m. UTC

Rocket: Long March 6A

Launch pad: Launch Complex 9A

Location: Taiyuan Satellite Launch Center, People's Republic of China

...

Latest news about this satellite

There are no fresh news available about this satellite. Check back as we update our databases every day.


Newsletter sign-up

Weekly statistics, charts and insights to help you stay on top of the space industry.